Theta_e
302 301 300 300 299 299 299 299 298 298 298 299 298 298 296 295 294 295 293 292 291 290 290 290 290 289 289 289 289 289 290 290 290 290 290 289 288 288 287 287 286 284 283 281 281 281 281 280 279 279 279 279 279 279 278 278 280 281 281 280 280 280 279 277 276 276 279 279 280 280 279 279 279 279 278 278 279 280 282 278 278 278 279 279 279
302 300 299 300 299 299 298 297 297 296 295 295 295 295 295 294 293 292 292 290 290 290 289 289 289 288 288 288 289 289 289 289 289 290 289 288 287 287 286 285 284 282 282 281 280 281 280 279 279 278 278 279 278 278 279 279 279 279 279 279 279 279 279 277 277 277 277 278 278 280 279 279 277 278 279 279 278 278 278 279 279 279 278 278 278
301 300 298 297 297 297 296 295 294 293 293 293 293 293 293 292 291 291 290 288 289 290 289 288 288 288 288 287 288 288 288 288 288 289 288 288 286 286 285 285 283 281 280 280 280 279 279 279 279 279 279 278 278 278 279 279 279 279 278 279 278 278 279 279 277 277 277 276 277 278 278 278 277 277 278 279 279 279 278 278 278 279 280 279 279
300 299 297 296 295 294 294 293 292 291 292 291 292 292 292 291 290 291 290 288 288 288 288 288 287 287 287 286 287 287 287 288 288 288 288 287 286 286 284 284 282 281 281 280 279 279 279 278 279 279 279 278 278 278 278 279 279 279 279 279 279 278 278 278 278 277 277 276 276 276 276 276 277 279 278 279 279 279 279 279 278 278 278 279 279
299 299 296 294 293 293 293 292 292 291 291 290 290 290 290 290 289 290 289 288 288 287 287 287 286 286 286 286 286 286 286 287 287 287 287 286 286 285 283 283 282 280 280 280 281 279 279 279 278 278 278 278 278 278 278 278 279 279 278 279 279 279 279 278 278 278 276 276 276 277 277 277 277 276 277 277 277 278 277 277 278 277 277 278 279
298 298 296 294 293 293 292 292 292 292 291 290 289 289 289 289 289 289 289 288 287 287 287 286 286 286 286 286 285 285 285 285 285 285 285 285 284 284 283 282 281 280 279 280 279 279 279 279 278 278 278 278 278 278 278 278 279 279 279 279 279 279 278 278 278 277 277 276 276 276 277 276 277 277 277 278 277 276 276 277 276 277 276 276 277
297 296 295 294 293 292 292 292 292 292 291 291 290 289 288 288 288 288 288 288 287 286 286 286 286 286 285 285 285 284 284 284 284 284 284 284 284 283 282 281 280 279 278 279 279 279 278 278 278 278 278 278 278 278 278 279 279 279 280 279 279 279 278 278 277 277 276 276 276 276 276 276 277 276 277 278 278 277 276 276 276 276 276 276 276
295 295 294 293 293 293 292 291 291 291 291 290 289 289 288 287 287 287 287 287 286 286 286 286 286 286 285 285 284 284 283 283 284 284 284 283 283 282 281 281 280 279 278 279 279 279 278 278 278 278 279 279 279 279 280 280 280 280 280 279 279 278 278 278 277 277 276 276 276 275 275 276 276 278 278 277 276 276 276 276 275 276 276 276 276
294 294 293 293 294 292 291 291 290 290 290 289 288 288 287 287 286 286 286 286 286 286 285 285 285 285 284 284 284 284 283 283 284 283 283 282 282 282 281 281 280 279 279 278 278 277 277 278 278 279 280 281 282 282 283 282 281 280 279 279 279 278 278 278 278 277 277 277 276 277 277 276 277 277 277 277 277 277 277 276 276 276 276 276 276
294 294 293 294 293 291 291 290 290 289 289 289 288 287 286 286 286 285 284 284 285 285 284 284 284 284 283 283 283 283 283 284 284 286 286 283 282 282 281 280 280 279 277 277 277 278 278 278 279 281 282 283 283 284 284 284 283 282 280 279 279 278 278 277 277 278 277 276 276 277 277 277 277 278 278 279 279 278 276 276 275 277 276 276 277
293 294 294 293 291 291 290 289 288 288 288 288 287 286 285 285 285 285 283 283 284 284 284 283 283 283 283 282 281 281 283 283 285 288 288 287 283 281 281 280 279 279 278 278 277 277 277 278 279 282 282 282 283 284 285 284 284 283 283 282 282 280 278 277 277 278 277 276 277 277 277 277 278 278 278 278 278 277 277 277 277 277 276 275 274
294 294 294 291 290 290 289 288 288 287 287 287 286 285 284 284 284 285 284 283 284 284 283 283 283 282 282 281 280 280 282 285 288 288 289 288 285 282 281 281 280 279 278 278 277 277 277 278 279 280 281 281 282 283 283 284 284 284 283 283 283 283 283 280 279 278 278 277 277 277 278 278 279 279 278 278 278 278 278 277 277 276 276 275 276
293 293 292 290 290 290 288 287 287 286 286 285 285 284 284 283 284 284 284 284 284 284 283 283 283 282 282 281 280 280 281 287 288 289 289 289 287 284 281 281 280 279 278 278 277 277 277 278 278 279 280 282 281 281 281 282 284 284 284 284 284 284 284 285 284 281 280 280 279 278 279 279 278 279 278 279 280 278 278 277 277 277 277 276 276
292 291 290 290 289 289 287 287 287 286 285 285 284 283 283 283 284 284 284 284 283 283 283 283 283 282 282 282 282 281 281 287 288 289 288 289 287 285 281 281 280 279 278 278 278 278 278 278 278 278 279 280 280 280 280 280 281 281 282 282 281 282 284 285 285 285 284 281 280 279 280 279 279 279 280 281 279 277 277 276 277 276 276 276 277
290 290 289 289 288 288 287 286 286 285 285 284 283 283 283 283 283 284 284 284 283 283 283 282 282 282 282 282 282 281 281 288 289 288 289 288 288 285 281 281 280 279 279 278 278 278 278 278 278 278 278 279 280 280 280 280 279 279 279 279 280 280 281 281 282 282 283 283 283 282 282 281 281 281 280 280 279 279 279 279 279 278 278 279 278
289 288 288 288 287 287 286 285 285 284 284 283 283 282 282 282 283 284 284 283 284 283 283 283 282 282 282 282 281 281 282 287 287 288 288 288 287 282 282 281 280 279 279 278 278 278 278 279 279 279 278 279 281 283 282 280 279 278 278 278 278 279 280 282 283 284 283 282 282 281 281 282 284 283 283 283 283 283 282 281 280 279 277 276 275
288 288 287 287 287 286 286 285 284 284 283 283 282 281 281 281 282 284 283 283 283 282 282 282 282 282 282 281 281 281 281 285 287 287 287 288 285 282 281 281 280 279 278 278 278 279 280 280 280 280 280 279 282 284 284 282 279 278 277 277 277 278 278 280 283 284 285 285 285 286 286 286 286 286 286 286 284 283 281 279 277 278 276 275 275
287 287 287 286 286 285 285 285 284 283 283 282 282 281 281 281 282 283 283 282 282 282 282 282 282 282 281 281 281 280 280 284 287 287 287 287 283 281 281 280 279 278 278 279 279 279 280 282 282 281 281 281 284 285 286 284 280 279 278 278 278 278 279 280 279 280 284 285 285 285 284 284 284 285 285 285 284 283 279 276 277 277 275 276 274
286 286 286 285 284 284 284 284 284 283 282 282 281 281 281 281 282 283 283 283 282 282 282 281 281 281 281 281 282 280 280 283 287 287 287 286 283 281 280 279 278 278 278 278 279 279 280 282 282 282 281 282 285 286 286 284 281 280 279 279 279 279 279 279 278 277 277 277 278 279 279 281 281 280 280 283 283 282 281 279 279 277 275 275 275
284 284 284 284 284 284 284 284 283 283 282 281 281 281 281 281 281 282 282 282 282 281 281 281 280 280 280 280 281 280 280 282 285 287 287 286 284 281 280 279 278 278 279 279 278 279 279 280 282 284 284 285 285 286 286 286 282 281 280 279 279 278 279 278 279 280 280 280 279 279 279 279 280 280 279 279 280 280 280 279 279 278 276 276 276
285 284 283 283 283 283 283 283 283 282 282 281 281 281 280 280 281 282 281 281 281 280 280 280 279 279 279 279 279 279 279 281 284 286 287 286 285 282 280 280 280 279 279 280 280 279 280 280 281 284 286 286 286 286 286 286 285 283 282 281 281 281 282 280 281 283 281 280 280 279 280 280 280 280 279 279 279 279 279 280 279 279 277 276 275
284 283 283 283 283 283 282 282 282 282 281 282 280 279 279 280 281 282 281 280 280 279 279 279 278 278 278 278 278 278 280 281 282 286 287 286 285 284 281 281 282 281 281 281 282 282 283 283 282 284 286 287 286 287 287 287 286 284 283 285 285 285 283 282 282 281 281 281 280 280 280 279 279 278 277 277 278 278 278 278 279 279 279 278 277
283 283 283 282 282 282 282 282 282 282 281 281 280 279 279 279 280 280 280 279 279 278 278 278 277 277 277 278 278 279 279 280 283 284 286 286 286 285 284 284 285 284 283 283 283 283 284 283 283 285 286 285 285 284 284 284 284 282 284 284 284 284 283 280 280 278 278 278 278 278 278 278 277 277 278 278 278 278 278 278 279 278 278 279 278
283 282 282 281 281 281 281 281 281 281 280 280 279 278 278 278 279 279 280 279 278 278 278 277 277 276 276 276 277 278 278 279 282 284 285 287 286 286 286 287 286 284 284 283 283 283 283 282 282 284 284 283 284 283 283 283 283 283 284 284 283 281 278 276 274 273 274 273 273 274 275 275 276 277 277 277 276 275 275 273 273 273 275 276 277
281 281 280 280 280 280 280 280 280 280 279 279 279 278 278 278 278 278 279 279 278 278 278 278 277 277 276 276 277 277 278 278 279 282 284 286 286 286 286 286 286 286 283 283 283 282 283 284 284 284 283 283 283 282 282 281 281 281 282 281 279 272 271 271 271 270 269 270 270 271 272 272 273 274 274 273 273 272 270 269 269 269 270 269 269
280 279 279 280 280 280 279 279 280 280 280 280 280 279 279 279 278 278 279 279 278 278 278 278 278 277 277 276 276 276 276 275 276 277 280 282 284 286 286 286 285 285 284 284 284 284 284 284 283 282 281 280 277 274 274 274 279 279 279 279 271 270 271 269 269 269 268 269 270 270 271 271 271 271 271 270 269 270 268 268 267 268 266 266 267
280 280 279 280 280 281 280 280 280 280 280 280 280 280 280 280 279 279 279 279 278 278 278 278 277 277 276 276 276 275 275 275 275 275 275 276 277 280 282 282 284 283 280 281 281 280 281 279 278 279 279 279 279 278 277 277 275 274 273 273 272 270 270 269 269 269 270 270 271 271 271 273 274 274 272 271 270 271 271 269 267 266 266 266 267
281 280 280 281 281 281 281 280 280 280 280 280 280 280 280 280 280 280 280 279 278 278 278 278 278 277 277 277 276 275 275 275 275 275 276 277 276 276 276 276 277 276 276 276 276 276 276 279 278 273 273 271 271 271 272 272 273 274 274 274 273 274 275 277 278 275 274 274 273 273 272 272 271 271 271 271 271 271 270 268 268 267 267 267 266
281 281 281 281 281 281 281 281 281 281 280 280 280 280 281 280 280 279 279 280 280 279 279 279 279 279 279 278 276 275 275 275 275 278 277 279 276 275 275 275 275 274 277 278 274 273 272 271 270 271 271 272 273 274 274 274 274 275 275 275 275 274 274 274 274 273 274 273 273 273 273 272 271 270 271 272 272 271 269 268 267 267 267 267 266
281 280 281 281 281 281 281 281 281 279 279 278 278 279 281 282 281 279 279 283 284 284 283 280 280 280 278 276 277 276 276 275 280 281 281 281 281 280 279 279 278 277 280 280 276 272 272 272 273 274 275 274 274 275 275 274 274 274 275 277 275 274 274 274 274 273 274 273 273 272 272 271 270 270 271 271 271 271 271 271 267 267 266 266 265
281 281 281 280 281 281 281 280 279 279 279 278 278 278 278 280 282 282 282 282 283 284 284 284 283 281 278 276 280 282 282 282 282 281 281 281 281 280 280 280 280 281 281 278 276 275 275 275 275 276 276 275 275 275 275 275 275 274 273 273 273 274 274 272 271 270 270 269 269 268 268 267 268 269 270 270 270 269 269 269 268 266 265 265 264
280 280 280 280 281 280 280 279 279 278 278 277 277 277 277 277 278 281 282 282 283 283 283 282 282 282 282 280 279 279 281 282 282 281 281 281 281 281 281 281 281 282 282 281 277 277 276 276 275 276 276 275 275 274 274 273 272 271 271 270 270 270 269 267 267 264 265 264 265 267 267 267 266 267 268 268 268 266 265 265 266 266 266 264 263
281 280 280 280 280 279 279 279 278 278 277 276 276 277 276 276 276 276 279 282 282 282 282 282 282 282 282 282 281 280 280 281 281 281 281 281 281 281 281 282 282 282 282 279 277 277 277 276 275 273 273 272 272 271 271 271 270 268 267 266 264 264 263 263 264 263 264 264 264 264 264 264 264 265 265 264 264 263 264 264 264 264 263 262 262
281 281 280 280 280 279 279 278 278 277 277 277 276 276 276 276 276 275 274 275 277 279 281 282 281 281 281 281 281 281 281 281 281 281 281 281 281 281 281 281 282 282 280 274 274 275 273 273 273 272 271 271 270 270 268 265 264 262 262 261 261 260 259 260 260 261 262 262 260 262 262 261 262 260 259 259 261 261 260 261 261 261 260 260 260
280 276 275 277 279 279 278 278 278 277 277 276 276 275 275 275 275 275 274 273 272 271 273 276 279 281 280 280 281 281 281 281 281 280 280 280 281 281 280 277 276 276 275 270 270 270 271 270 268 266 265 265 264 264 261 259 260 260 259 259 257 256 258 259 260 259 258 257 257 257 260 260 257 260 260 258 257 257 259 260 259 259 258 258 258
278 278 278 277 278 278 278 278 278 278 277 277 276 275 275 275 274 274 273 273 272 271 271 271 274 278 279 279 280 280 280 279 279 279 279 279 279 279 273 272 272 271 269 266 265 264 265 264 264 261 261 260 260 260 259 259 258 257 256 257 258 256 256 257 259 257 258 255 257 259 258 255 257 257 255 256 256 257 257 258 258 258 258 257 258
277 277 277 277 277 277 277 277 277 277 277 275 275 274 274 274 274 273 272 271 270 269 269 269 270 271 274 274 276 277 278 277 277 276 277 277 278 270 264 267 268 265 266 262 263 262 261 260 260 260 259 259 258 257 258 257 256 255 261 254 253 254 254 253 255 256 253 255 253 252 254 253 252 253 255 254 256 255 256 257 257 258 258 259 260
277 277 277 276 276 276 276 276 275 275 274 274 274 274 273 273 273 272 271 269 269 268 268 269 270 269 268 269 273 272 273 274 274 271 271 271 265 261 262 262 263 263 262 261 260 260 259 257 257 258 256 256 255 255 254 253 253 253 254 254 255 254 261 259 260 254 254 253 251 252 255 253 252 253 256 254 254 254 255 257 256 254 255 257 256
275 275 275 275 276 275 275 273 273 273 273 273 273 273 272 271 270 270 269 268 267 267 267 268 268 267 268 269 269 270 269 263 259 259 259 258 258 258 259 259 260 259 259 259 259 258 257 257 257 256 255 255 255 253 254 253 252 252 251 252 253 252 253 252 253 252 253 251 251 250 252 251 251 252 254 253 253 254 254 254 254 254 253 254 253
273 273 274 275 274 273 272 272 272 272 272 272 271 271 270 270 269 268 268 267 266 266 266 266 265 265 266 266 266 265 263 260 259 258 257 256 257 256 257 258 258 258 258 257 256 255 256 254 254 254 254 254 253 252 252 252 250 252 251 251 251 251 250 250 250 250 250 249 250 250 251 249 249 252 252 252 252 252 253 253 254 254 253 253 254
273 272 271 273 272 272 270 271 271 271 271 270 270 270 269 268 268 267 267 266 265 265 264 263 262 261 263 266 269 267 259 259 259 257 257 257 255 254 254 254 256 255 255 255 255 254 253 253 253 253 252 252 251 252 251 250 251 251 250 253 252 253 251 250 249 250 249 250 250 249 249 249 251 251 250 251 258 256 253 254 254 253 254 253 253
272 271 271 271 271 271 270 270 270 268 269 268 269 269 267 267 266 266 265 265 264 264 262 261 260 261 266 269 270 269 260 256 257 257 256 255 255 253 254 252 252 252 253 253 253 254 253 253 252 252 252 252 252 251 251 250 250 249 250 251 251 251 251 251 250 249 248 248 248 248 248 250 251 252 253 258 252 250 251 251 251 252 251 252 252
271 271 270 270 270 270 270 269 268 269 268 268 267 265 265 266 266 265 264 264 263 262 261 260 261 263 266 270 268 266 257 255 258 256 254 254 253 253 252 252 251 250 250 250 250 251 251 251 251 250 250 250 250 251 250 250 249 250 249 250 250 250 250 250 250 250 249 249 249 250 250 250 251 250 249 251 250 250 250 250 251 250 251 251 251
269 269 269 268 268 267 267 268 267 266 266 264 264 264 263 263 263 263 262 262 261 260 260 260 261 263 264 264 262 258 254 253 253 253 253 253 252 252 252 251 251 251 249 249 249 249 249 249 250 251 250 249 248 248 248 248 249 249 248 249 250 251 250 250 251 249 249 249 249 249 249 250 251 250 251 252 249 249 250 249 250 250 250 249 250
269 268 267 267 267 266 265 265 264 264 263 263 263 262 262 262 262 261 261 260 259 259 258 259 259 260 259 258 256 255 253 253 253 253 252 252 252 251 251 251 250 250 249 249 248 248 248 249 249 250 250 249 249 249 249 249 249 249 250 251 250 252 252 251 250 249 249 248 249 249 249 249 247 248 249 249 250 249 250 249 250 253 251 250 250
268 267 266 266 265 264 263 263 262 263 263 263 263 262 261 260 259 259 259 258 258 257 257 256 255 255 255 254 253 253 252 252 251 251 251 251 251 250 250 251 250 249 249 249 249 249 250 250 250 250 250 250 249 249 249 248 249 250 249 249 251 252 251 249 247 247 247 247 247 247 248 249 248 250 252 249 249 249 248 248 248 249 249 250 250
267 266 265 264 263 262 262 262 263 262 262 262 261 260 259 258 258 257 257 257 257 256 256 254 255 253 253 253 252 252 252 252 251 251 251 250 250 250 250 250 250 249 250 251 250 251 250 251 251 250 250 248 248 249 249 248 247 248 249 250 250 251 249 248 249 248 249 249 248 247 249 249 250 249 251 251 250 249 250 250 249 249 249 250 249
265 264 263 262 262 262 262 262 261 260 260 260 259 259 258 257 257 256 255 256 255 255 254 253 253 252 252 251 251 250 251 251 250 251 251 250 250 249 249 249 251 251 250 250 250 251 251 250 250 250 250 250 249 249 249 249 248 249 249 249 250 250 251 251 249 249 249 248 248 248 248 249 248 248 248 249 248 249 249 249 249 249 249 249 250
263 263 262 262 261 261 261 261 260 260 260 259 258 258 257 256 255 255 254 254 254 253 253 253 252 252 252 251 251 251 251 251 251 251 251 251 250 250 251 250 250 250 250 251 252 251 251 251 251 250 250 249 249 249 249 249 250 250 250 248 251 254 254 253 252 250 251 250 248 248 247 248 248 248 249 249 250 248 249 248 248 249 249 249 249
262 262 261 261 261 261 260 260 260 259 259 258 258 257 256 255 255 254 254 254 253 253 252 253 252 252 253 252 252 252 252 252 252 252 252 252 252 251 251 251 250 250 251 251 252 252 251 250 250 249 249 249 249 249 250 250 250 250 248 250 254 256 255 255 254 253 252 249 249 248 249 248 247 248 248 248 248 248 248 249 248 249 249 247 248
261 260 260 260 260 260 260 260 259 259 258 257 257 256 256 255 255 254 255 255 255 255 255 254 253 252 253 253 253 253 253 253 253 253 253 253 252 252 253 253 252 251 251 252 252 251 251 249 249 250 249 250 250 250 250 250 249 249 251 254 254 255 255 255 254 254 254 252 248 249 248 248 248 248 248 247 246 247 249 249 248 248 247 248 248
Wind_Speed
8 9 9 9 9 9 9 8 8 7 7 7 7 7 6 6 6 6 5 6 6 7 7 7 8 8 7 6 8 8 8 8 7 7 7 7 6 7 7 8 9 7 8 7 6 8 9 10 8 7 8 9 7 7 6 5 5 6 6 6 6 5 5 3 2 1 0 1 3 2 2 4 3 5 5 4 5 5 5 5 5 6 6 6 7
8 7 7 7 9 9 9 7 8 6 7 7 7 7 7 7 6 6 6 6 7 8 8 7 7 8 8 8 7 6 6 7 7 7 8 8 7 6 8 9 9 8 7 9 8 7 9 11 9 8 7 10 8 7 6 6 6 7 6 6 5 5 3 2 2 2 2 1 1 2 2 3 3 3 7 6 7 4 6 6 6 6 7 7 7
6 6 7 7 7 7 7 8 8 8 9 7 7 7 6 7 7 8 7 6 6 7 8 8 8 8 7 7 7 7 7 7 7 8 8 9 9 9 9 10 11 11 10 10 10 9 10 10 10 9 7 9 7 6 6 6 6 8 6 5 6 4 4 4 2 0 1 2 2 3 4 3 5 4 4 6 6 5 6 7 7 6 6 7 8
7 7 7 8 7 7 8 7 9 9 9 8 9 7 8 8 8 8 8 7 8 6 7 7 7 8 8 8 8 8 8 8 8 8 9 10 9 10 10 10 10 11 11 11 11 11 11 11 10 10 10 10 8 7 5 7 7 7 7 4 5 5 4 3 2 3 1 2 2 4 2 4 5 4 5 5 6 6 7 7 5 6 7 7 8
8 8 8 9 9 9 8 8 9 9 9 8 9 8 9 8 8 9 8 8 8 8 7 7 8 8 8 9 10 10 10 10 10 10 9 9 10 9 10 10 10 11 11 11 11 12 12 12 11 10 10 11 8 7 7 8 7 7 6 5 5 4 3 3 1 1 2 4 4 2 2 2 3 3 4 6 5 5 5 8 8 7 9 9 7
8 8 8 9 9 10 10 9 10 10 10 8 9 9 9 8 9 8 9 9 8 8 9 7 8 9 9 9 9 9 9 9 10 9 9 9 9 8 9 9 8 8 9 9 10 10 11 12 11 11 11 12 9 8 8 9 7 7 7 6 5 4 4 3 3 2 3 4 4 5 3 3 4 3 5 6 6 6 7 6 5 6 7 8 8
8 9 9 9 9 10 11 11 10 10 10 9 8 8 8 8 9 9 8 9 9 8 8 8 8 9 9 8 8 9 8 8 9 8 8 8 9 9 8 7 7 7 8 9 9 9 10 11 11 10 11 11 12 11 9 8 7 7 7 6 5 5 4 4 3 4 4 5 5 5 5 3 4 7 5 6 7 7 7 8 9 6 6 8 9
8 8 8 8 9 11 10 9 9 9 8 8 8 8 8 8 9 8 8 9 8 8 9 9 8 7 7 7 6 6 7 7 7 7 7 9 9 9 10 10 9 7 7 7 8 9 9 10 10 9 10 10 11 10 10 9 7 8 6 6 5 5 5 4 4 4 4 5 6 5 4 5 5 5 3 2 4 5 5 6 10 10 8 7 8
8 8 8 10 11 9 8 7 7 8 8 8 8 8 8 8 8 8 8 7 6 8 7 7 8 8 7 7 7 6 7 7 7 8 9 9 9 10 10 11 10 10 8 8 7 8 8 8 9 9 10 11 13 10 10 10 9 8 7 7 6 5 4 4 4 4 4 4 5 3 5 7 7 5 6 5 7 10 5 4 8 9 7 9 8
8 8 10 11 8 8 9 8 8 8 8 9 8 8 8 8 9 9 8 7 7 7 6 6 7 7 7 7 7 6 7 6 8 14 12 10 9 7 7 8 10 10 10 9 7 7 8 7 7 12 14 14 15 14 14 12 10 8 9 8 7 6 6 5 5 5 5 5 5 4 6 8 7 5 6 7 6 6 6 5 7 9 7 9 11
8 9 12 9 7 7 8 8 8 9 8 8 7 8 8 7 8 8 7 7 8 7 7 8 7 7 8 7 7 6 5 5 11 13 13 12 8 8 9 8 9 10 11 11 11 9 6 6 7 10 11 11 11 14 13 13 13 13 12 10 9 8 7 6 6 6 6 5 4 5 7 9 8 4 7 7 5 6 7 7 8 7 7 9 13
10 11 10 6 7 9 8 8 8 8 8 8 8 7 7 7 7 7 7 7 6 6 7 7 6 6 5 5 6 6 6 7 11 12 12 12 10 10 9 9 9 9 9 9 9 9 9 8 6 6 6 8 7 8 9 12 13 13 13 12 12 11 10 8 7 6 6 5 6 8 6 8 9 3 5 5 7 6 5 5 6 7 9 9 10
10 9 8 7 8 8 7 8 8 8 8 7 7 7 8 8 7 7 8 7 6 7 6 7 7 6 6 6 6 5 5 9 12 14 15 14 13 10 7 8 9 9 10 10 10 10 9 8 7 5 5 7 6 6 6 6 10 12 12 13 13 13 13 15 13 8 4 6 8 9 6 6 9 5 2 3 4 7 7 8 7 7 8 10 12
9 9 8 8 8 7 7 8 8 8 7 8 7 8 8 8 7 7 7 7 7 6 6 7 7 7 7 6 5 5 5 9 14 14 13 13 13 10 6 7 7 8 10 10 10 11 11 11 9 7 6 6 5 6 6 5 5 5 6 6 5 9 13 15 16 16 12 8 8 10 7 3 9 7 4 5 8 8 8 10 8 8 9 12 13
8 8 8 7 7 8 8 8 8 8 8 8 8 8 8 7 8 8 8 8 9 9 9 8 7 7 6 6 5 5 4 10 12 13 12 12 13 8 5 5 5 5 6 8 9 10 10 10 10 9 8 7 6 7 7 6 5 5 5 5 6 6 6 6 7 6 7 7 9 10 9 7 9 9 6 5 7 8 8 11 11 10 11 11 11
7 6 7 8 8 8 8 8 8 8 8 8 8 8 8 9 9 7 7 6 5 5 5 6 7 7 7 7 7 6 5 10 11 12 13 13 12 6 6 6 6 5 5 6 6 6 8 9 9 8 8 7 8 12 8 5 5 5 6 5 4 4 4 5 8 9 8 8 8 8 8 8 11 9 9 8 7 6 7 7 6 6 8 10 12
8 8 8 8 8 8 8 9 8 9 9 9 9 9 9 8 7 6 7 7 7 6 6 6 5 6 6 6 6 5 5 10 13 13 13 15 10 6 6 6 5 6 5 5 6 6 7 8 8 8 8 7 9 13 11 9 5 5 5 5 4 3 4 4 9 13 15 16 17 17 17 17 18 18 18 19 13 10 8 9 9 7 9 11 11
8 8 9 8 8 8 8 9 9 9 9 10 9 8 7 7 8 7 9 8 7 7 6 6 5 6 7 6 6 6 5 9 14 14 15 14 10 8 7 7 6 6 5 4 4 5 6 9 8 8 7 6 11 13 12 9 5 5 5 5 5 4 4 4 4 6 12 14 13 14 15 15 17 19 18 18 17 12 6 9 9 8 10 10 11
8 8 7 6 7 7 7 8 9 9 9 8 9 9 9 8 7 6 6 6 7 6 6 6 6 5 5 6 8 8 6 8 14 16 17 16 11 7 8 7 8 7 7 6 4 4 5 6 8 7 6 7 12 12 12 9 5 5 5 4 5 5 4 3 4 4 3 4 5 5 7 10 9 8 8 15 16 13 8 9 7 8 10 10 10
5 5 5 6 6 7 7 8 8 9 8 7 7 8 7 7 7 7 6 6 7 6 6 6 7 5 5 5 6 6 7 6 10 17 17 17 15 9 7 8 8 8 6 7 7 4 4 4 6 9 10 11 11 12 11 11 6 5 4 4 5 6 3 3 4 5 5 5 6 5 6 6 7 7 6 6 7 7 8 8 8 8 9 9 9
6 6 6 6 6 7 6 8 9 7 8 9 8 7 7 8 8 8 8 7 7 6 7 6 6 5 4 4 5 5 6 7 8 16 17 17 17 13 8 8 8 8 8 7 7 7 6 5 5 10 12 11 11 11 10 10 9 5 5 6 5 5 6 5 6 7 5 4 4 4 4 5 5 4 5 5 5 5 6 7 7 7 7 8 8
7 7 7 7 7 7 7 6 8 8 8 9 9 7 6 7 8 8 7 8 9 8 7 6 6 5 4 4 4 4 4 7 6 12 16 17 16 13 7 7 8 9 8 7 6 6 6 6 6 8 11 10 9 8 8 8 9 4 4 7 10 11 7 2 2 2 3 4 5 5 5 4 5 4 4 4 5 5 4 5 5 6 7 8 9
7 7 7 7 7 7 7 9 8 7 8 9 10 9 8 8 7 8 9 8 9 9 7 7 7 6 5 4 4 4 4 5 8 7 13 16 16 14 11 7 12 7 8 8 7 6 6 6 6 9 9 8 6 4 3 4 3 1 5 7 9 10 5 2 3 3 3 4 5 5 5 5 5 5 5 3 2 3 3 4 4 5 5 6 6
7 7 7 6 7 7 7 8 7 7 8 8 9 9 8 8 7 7 8 9 8 8 7 7 6 7 6 5 4 3 3 4 6 8 9 15 16 14 13 12 10 6 6 6 6 7 6 6 7 13 11 8 6 4 3 3 1 4 6 7 6 5 1 3 1 2 4 4 4 4 4 3 4 4 5 5 5 4 5 3 2 3 3 4 5
8 8 7 7 7 7 7 7 7 7 7 9 9 8 8 8 8 6 7 7 8 8 7 7 7 7 6 6 5 5 4 4 4 5 8 12 16 15 14 14 12 11 6 5 5 5 7 11 13 9 7 7 6 4 2 0 3 4 5 4 4 2 1 1 2 2 2 3 3 3 3 3 3 4 4 4 4 4 4 3 2 2 3 3 4
9 9 8 8 8 8 9 8 8 8 7 7 8 8 9 8 8 7 7 7 7 7 7 7 7 7 6 6 6 6 5 4 4 4 4 5 9 14 15 13 11 9 8 7 10 10 9 9 9 10 9 7 4 2 2 1 1 1 1 2 0 1 1 1 1 1 3 4 4 4 5 4 4 4 4 2 4 6 4 4 4 5 4 5 5
10 10 10 9 8 9 10 8 8 7 7 6 7 7 7 7 8 7 7 7 7 7 7 7 7 6 6 6 6 6 5 5 5 4 4 5 4 4 6 7 7 9 7 6 7 6 8 7 7 7 6 7 6 5 4 2 1 1 1 1 2 3 2 2 3 5 4 5 5 5 5 6 4 3 3 3 4 5 4 3 3 3 3 4 6
11 10 11 9 8 9 9 11 10 8 7 7 7 6 6 6 7 7 8 8 8 7 7 7 8 7 7 7 7 6 6 6 6 6 6 6 5 5 5 5 5 6 6 6 6 7 7 7 7 5 4 3 2 2 2 3 4 5 5 4 4 5 5 5 4 3 4 4 5 4 3 3 3 3 3 4 5 5 3 0 1 3 3 4 6
9 10 9 8 8 8 8 8 8 8 8 6 5 4 7 6 6 5 3 5 6 9 8 7 6 6 7 8 8 7 6 7 7 7 8 8 8 7 7 6 6 6 8 10 8 6 6 6 5 5 4 4 4 4 5 5 5 5 5 5 4 4 3 4 4 5 4 3 3 3 3 3 3 3 4 5 6 5 2 3 3 3 3 3 6
11 10 9 8 9 9 8 8 8 8 8 8 8 8 10 10 6 6 5 7 10 7 5 6 6 6 7 5 6 9 8 6 11 15 14 14 14 12 11 11 10 9 12 16 8 7 6 6 5 5 4 5 5 5 5 4 4 3 3 3 4 3 2 1 2 3 5 4 4 4 4 4 4 4 5 6 5 3 4 6 5 5 5 6 7
9 9 9 9 10 9 9 9 8 8 8 8 8 10 9 9 13 12 9 9 11 12 12 12 13 10 9 6 6 12 13 15 17 16 16 16 15 15 15 15 16 16 16 10 6 6 5 5 5 5 5 5 5 5 4 5 4 4 1 2 3 2 3 4 3 3 3 3 3 3 3 3 4 3 4 5 5 5 4 3 3 4 4 5 5
10 9 8 8 9 8 8 9 9 9 8 7 8 9 10 10 9 11 14 13 14 14 14 15 15 14 14 12 10 8 13 16 16 17 16 17 16 16 16 16 16 15 15 12 6 5 5 5 5 5 5 5 3 4 4 4 3 3 2 1 1 3 3 2 2 2 2 2 2 3 2 3 3 3 4 4 5 4 4 5 5 5 5 5 5
9 9 8 9 8 9 9 9 9 9 9 9 8 8 9 10 13 11 10 14 15 14 14 15 15 15 15 15 14 12 12 14 17 17 16 16 16 15 15 14 13 13 13 8 6 5 6 5 5 4 5 5 4 4 4 4 4 2 2 2 2 1 2 1 3 2 1 1 1 2 2 3 3 5 5 5 5 4 4 4 4 5 5 6 5
9 9 10 11 10 9 8 8 8 8 7 7 7 8 7 8 11 13 14 10 10 11 13 14 14 15 14 15 15 16 16 16 16 16 15 15 15 14 13 9 12 12 8 5 5 5 5 6 5 5 4 4 4 4 3 3 3 3 2 3 2 2 2 2 4 1 1 2 2 2 2 2 3 2 3 3 3 3 4 5 4 4 4 4 5
6 7 10 9 8 8 8 8 8 8 8 8 8 8 9 8 9 10 11 13 13 11 7 7 10 12 10 11 14 16 16 16 15 15 15 15 15 15 13 8 7 5 5 3 4 5 6 6 6 4 5 5 4 5 5 4 4 3 3 2 2 2 2 1 0 1 1 1 2 2 2 1 1 2 1 2 3 2 2 3 3 4 4 5 5
7 7 8 9 8 8 8 8 8 8 8 8 7 8 8 8 8 7 7 7 8 9 7 5 5 9 14 13 15 14 15 14 14 14 13 14 14 15 8 6 6 6 5 4 5 3 4 4 6 5 5 5 5 5 6 5 4 5 4 3 2 1 0 0 0 0 0 1 0 1 1 1 1 1 1 1 1 1 2 2 3 3 4 4 4
7 7 7 7 8 8 7 7 7 7 7 7 8 8 8 7 5 7 6 7 8 7 9 8 8 8 8 5 10 14 15 13 12 12 11 12 11 6 5 6 7 6 7 5 6 5 5 4 6 6 5 6 4 6 5 5 5 3 2 3 3 2 1 1 2 2 1 0 1 1 0 0 1 1 0 0 1 1 1 1 2 4 4 6 7
7 7 7 8 8 8 8 7 7 8 8 8 7 8 8 7 7 8 7 8 8 9 9 7 6 9 11 7 6 5 9 12 11 8 7 7 6 4 5 5 6 8 7 6 5 6 6 5 5 7 4 6 6 6 5 4 4 4 3 1 1 1 3 1 1 1 1 1 1 0 0 1 1 0 1 0 1 1 1 2 1 2 3 5 4
6 8 10 10 7 8 8 8 8 8 7 7 8 8 7 7 8 7 7 7 8 7 5 6 7 7 6 6 6 7 8 4 4 5 5 4 4 5 5 6 7 6 5 6 5 5 7 5 5 4 5 5 5 4 5 4 4 3 3 2 0 1 1 0 1 1 1 2 1 1 1 1 1 1 0 0 1 1 2 1 1 1 3 4 4
8 7 8 11 7 7 6 6 7 8 6 9 8 7 8 7 8 8 8 9 8 8 7 7 7 6 5 6 6 5 6 6 6 6 6 4 4 3 5 6 6 6 7 5 5 5 6 5 5 5 5 5 5 4 3 4 3 2 2 2 2 2 3 3 3 3 3 2 2 1 1 2 3 1 0 1 1 1 1 1 1 1 2 3 4
7 8 7 7 8 8 7 6 6 7 7 6 7 7 8 7 7 6 7 7 7 7 7 6 6 5 5 7 10 7 5 6 6 5 6 5 5 4 4 4 6 5 4 5 5 4 5 5 4 5 4 4 5 4 3 4 2 2 2 2 1 2 3 3 3 3 3 3 3 2 3 2 1 1 2 3 3 2 1 1 1 3 3 2 3
8 8 8 7 8 8 8 6 5 6 7 6 7 7 6 6 7 7 7 8 7 7 7 6 5 5 7 11 10 8 7 5 5 6 4 4 5 3 3 3 3 4 4 5 5 5 4 5 5 5 5 4 4 3 4 3 3 3 2 2 2 3 3 4 4 3 4 4 3 3 3 3 2 1 1 3 2 2 2 2 2 2 3 3 3
9 8 7 6 8 8 8 8 7 8 7 7 6 6 6 7 7 7 7 6 7 7 8 7 6 5 5 9 7 8 6 5 5 5 4 4 4 3 4 4 3 3 4 3 3 4 4 5 4 3 4 4 5 4 4 5 4 4 3 3 3 4 4 4 3 3 3 3 5 3 3 3 2 1 2 3 3 2 2 2 2 2 3 3 4
9 8 6 6 6 7 6 7 7 6 6 7 7 6 6 6 7 7 7 7 7 6 7 7 6 6 5 5 7 6 4 4 4 4 4 4 4 4 4 3 4 4 3 3 3 3 3 3 3 1 1 2 2 2 2 3 3 3 3 3 2 4 4 4 6 5 5 6 4 3 2 1 1 2 3 4 3 3 5 3 3 3 3 4 4
9 9 9 8 7 7 7 6 7 7 8 7 7 7 5 7 7 6 7 7 6 6 6 6 6 6 5 5 5 6 4 4 5 5 4 5 5 4 4 5 4 5 4 3 3 3 3 3 3 3 2 2 1 2 2 2 2 3 4 5 5 6 7 7 6 5 6 5 5 3 2 2 3 4 5 5 3 3 4 4 3 4 3 3 2
8 8 7 8 8 6 7 7 5 7 7 7 8 7 6 6 6 6 6 6 6 7 6 6 6 5 5 4 4 5 4 5 4 4 5 4 5 4 4 5 4 4 4 4 4 4 4 4 4 4 4 4 4 3 4 4 4 4 4 4 6 7 6 6 4 4 4 4 4 4 4 4 4 5 6 5 4 4 4 3 2 3 4 4 4
8 8 8 7 8 7 6 6 7 7 7 7 7 7 7 6 6 6 6 7 7 7 6 7 6 6 6 6 5 5 5 6 4 6 4 4 4 5 5 4 5 4 3 3 3 4 4 4 5 5 5 4 4 4 4 4 4 5 4 6 6 6 6 5 6 5 6 5 4 4 6 5 6 4 6 4 4 4 4 5 4 4 4 4 4
8 7 7 7 8 8 8 7 8 8 7 7 7 7 6 6 7 6 6 6 7 6 6 6 6 6 6 5 5 4 4 4 3 4 4 4 4 4 4 4 4 4 3 3 3 4 4 4 5 5 5 4 4 5 5 5 4 5 5 6 6 7 7 7 6 6 6 5 5 5 5 6 6 5 5 5 5 5 5 6 4 3 4 3 5
8 8 8 7 7 7 7 8 6 7 7 7 8 8 6 7 6 6 6 6 6 6 6 6 6 5 4 4 4 4 4 4 4 4 4 4 4 4 5 4 4 5 5 5 5 5 5 5 5 6 6 5 6 6 5 5 6 6 6 5 8 11 12 11 8 6 7 6 5 5 5 6 6 6 6 5 6 5 6 4 4 4 4 4 3
8 8 8 8 7 7 5 6 8 8 6 6 8 7 7 6 6 6 6 6 6 6 5 5 6 5 6 5 5 5 5 5 5 5 4 4 4 4 5 5 5 4 5 4 4 5 5 4 5 5 5 5 5 6 6 6 6 6 6 7 10 13 12 12 12 9 8 5 6 6 6 6 6 6 6 6 5 6 6 6 5 6 4 4 4
7 8 7 7 7 7 8 8 9 8 7 7 7 7 7 6 6 5 5 5 6 5 5 5 5 5 6 6 5 6 5 5 5 5 5 4 4 4 5 4 5 3 4 4 4 5 4 4 5 6 5 6 6 6 6 6 5 6 8 11 13 13 13 11 9 10 11 8 5 6 6 7 6 7 6 6 6 6 8 6 6 5 4 4 4
Wind_Direction
190 192 181 189 187 192 188 185 189 185 191 198 196 189 177 172 176 175 152 171 152 159 165 171 171 174 173 179 180 173 170 170 169 162 161 166 167 163 159 158 153 154 146 147 145 141 136 135 139 138 133 118 121 119 114 120 103 93 90 91 90 81 98 103 122 221 310 116 134 177 171 141 198 197 211 223 242 242 233 239 241 246 251 251 253
201 191 189 187 192 194 188 180 179 180 186 190 191 187 173 172 168 159 175 173 165 168 174 171 172 172 173 177 179 174 169 169 167 166 168 168 168 166 164 159 153 151 151 150 152 146 138 135 137 134 131 125 132 131 134 120 113 98 82 93 91 81 91 103 131 146 238 25 37 50 155 170 211 188 198 221 245 233 237 244 244 237 245 250 249
196 184 187 191 200 201 190 175 166 177 183 188 188 180 170 162 162 170 175 170 174 174 174 172 175 172 172 173 173 174 173 172 174 170 175 177 175 176 171 164 159 158 161 162 155 143 137 138 141 137 132 123 122 122 125 118 108 103 101 98 98 93 75 86 100 79 345 281 178 188 207 228 206 235 217 221 233 226 237 242 237 239 237 239 245
190 185 185 192 193 196 198 182 169 172 180 184 186 180 170 168 166 172 172 168 174 176 172 172 169 171 174 175 177 177 175 175 177 182 179 178 177 176 174 170 166 167 165 161 152 148 146 140 146 142 133 123 127 126 125 119 112 112 112 104 102 90 77 81 79 138 204 221 268 186 232 196 261 239 234 230 223 235 232 247 245 246 249 245 244
188 190 184 187 190 194 200 188 181 181 181 179 182 175 173 168 170 172 168 173 174 168 173 168 170 175 180 183 183 183 183 180 182 184 183 179 175 173 175 173 172 171 168 161 155 150 152 149 149 141 134 127 134 133 135 122 124 118 117 113 105 111 106 113 156 160 187 241 270 272 268 264 210 219 213 220 244 241 243 245 246 244 252 247 242
194 189 187 184 190 194 198 192 188 184 184 182 180 178 174 170 170 173 171 172 171 175 170 171 176 183 187 189 186 185 179 179 180 182 179 173 171 173 175 174 171 165 160 154 152 153 151 149 149 144 141 140 145 142 136 130 123 121 120 121 129 133 142 170 157 190 220 237 238 275 263 251 296 245 222 230 242 257 263 255 252 245 247 262 249
196 195 192 190 189 198 198 197 187 185 185 184 178 177 176 172 170 175 174 172 172 171 173 175 184 184 190 185 185 179 176 175 173 171 172 170 166 164 166 162 154 157 159 154 151 148 145 145 147 149 147 147 147 148 140 131 131 133 138 136 148 146 157 163 180 204 215 236 251 245 270 264 231 268 251 218 234 237 258 289 280 242 234 249 265
196 198 193 199 203 204 203 194 187 184 181 179 181 179 173 172 175 172 171 176 175 172 176 183 187 185 187 186 182 171 169 173 173 168 169 168 167 167 164 160 155 151 147 144 142 142 145 147 149 152 151 152 146 144 141 142 140 139 144 142 149 151 163 182 197 208 223 237 243 258 259 263 270 257 267 244 271 266 224 238 270 281 269 249 242
198 197 195 204 211 203 200 197 183 179 176 178 179 179 174 172 170 171 175 175 170 175 174 176 174 182 179 178 179 177 178 182 180 173 168 170 167 167 166 159 149 143 140 134 131 135 142 148 151 152 148 143 140 138 149 150 148 144 150 150 153 156 175 186 201 214 238 238 258 267 268 266 260 273 276 251 245 262 254 213 259 271 281 285 272
198 202 206 212 205 198 199 191 181 175 178 179 179 176 172 169 167 170 174 170 168 165 162 165 174 176 175 180 179 179 187 184 179 176 173 168 167 158 147 148 145 143 140 136 135 145 147 145 145 143 138 135 138 143 147 144 141 144 152 157 160 164 177 184 201 216 225 239 245 247 261 261 259 251 265 260 263 277 285 271 273 286 290 282 284
205 207 217 210 195 194 198 192 171 179 181 176 173 171 172 166 165 164 164 163 162 160 159 167 173 177 182 180 177 177 176 174 177 178 175 158 150 151 151 151 150 153 154 152 150 146 133 129 132 136 133 134 142 147 147 148 145 143 148 155 167 168 171 183 208 208 218 236 233 234 249 266 266 240 254 274 275 271 278 283 282 293 291 301 298
205 213 218 201 194 196 199 182 174 175 170 177 170 170 166 164 165 161 156 156 155 149 159 166 166 169 170 175 175 175 176 167 165 175 160 151 154 161 161 158 160 157 152 148 143 141 141 138 139 139 139 144 145 145 151 157 158 161 168 178 186 189 187 185 199 214 214 225 241 237 238 260 273 258 273 282 286 285 278 277 284 292 293 289 284
203 212 211 200 200 196 191 183 174 169 173 166 165 162 163 164 163 158 162 157 149 161 166 160 170 169 171 177 181 175 172 160 163 170 166 162 163 159 156 159 158 159 154 153 151 148 146 141 138 139 136 129 136 146 149 165 173 179 188 196 204 208 215 221 222 219 204 233 245 258 232 263 279 277 230 268 292 296 303 294 292 286 283 282 281
198 208 203 202 197 190 186 177 174 170 162 161 160 162 162 167 161 157 151 151 157 156 155 164 165 172 174 175 172 166 165 163 160 169 170 163 155 152 164 160 158 155 155 155 154 152 153 149 147 150 154 156 155 151 159 162 163 183 199 205 206 220 227 233 238 239 235 233 241 256 257 222 263 278 272 291 293 289 293 287 288 282 278 271 276
197 198 198 199 189 187 182 174 169 162 161 159 160 164 163 155 155 159 158 162 164 169 170 170 172 167 164 157 153 156 160 167 161 161 149 150 152 134 135 130 134 141 146 154 158 155 153 151 152 153 157 167 172 170 169 172 168 182 195 206 211 210 215 227 234 238 242 247 251 254 261 248 257 271 277 260 253 260 264 271 276 277 278 281 282
195 186 194 193 189 183 173 169 162 157 158 160 161 163 162 160 160 157 152 155 152 142 144 153 161 168 166 162 157 157 157 161 155 157 152 157 144 126 137 137 136 136 137 142 146 148 150 150 146 148 158 168 185 184 179 162 170 189 210 222 220 217 224 224 234 236 234 234 236 245 251 254 263 269 273 272 270 276 271 277 281 282 284 286 286
192 189 190 188 183 176 170 162 160 158 158 159 163 163 159 154 151 146 146 151 153 157 160 159 156 153 155 158 155 149 150 165 158 158 161 153 128 133 128 126 126 130 136 135 143 148 148 147 143 145 156 172 184 189 190 175 184 199 220 232 228 223 231 222 239 245 250 252 255 262 274 282 288 291 293 294 294 294 298 297 291 296 292 289 287
189 185 188 183 175 169 165 158 156 157 157 163 164 161 154 148 152 154 153 155 157 157 146 142 145 149 153 157 158 150 152 165 162 162 162 147 134 136 138 133 135 129 125 125 127 138 144 141 138 142 152 167 179 192 198 188 191 207 221 237 245 239 237 220 229 236 246 254 260 270 276 280 282 282 281 280 278 278 268 272 274 276 274 275 283
187 185 182 169 162 158 155 154 154 156 158 159 156 154 156 154 146 141 142 139 140 136 139 140 142 146 155 154 153 147 151 166 165 163 160 148 139 139 138 139 137 141 140 141 136 132 132 135 144 145 152 169 181 192 199 197 198 209 223 239 253 252 237 212 228 245 248 251 256 250 260 263 262 261 257 257 261 261 253 255 264 266 270 274 277
170 156 151 151 148 148 150 149 150 150 150 146 147 146 136 131 139 137 136 136 136 136 132 134 136 139 141 146 150 149 151 165 171 168 163 153 149 145 148 145 150 149 150 150 153 156 145 152 171 177 172 179 189 198 208 215 203 212 212 230 245 261 220 223 234 243 249 244 254 243 250 248 249 251 255 253 253 246 247 246 249 254 265 272 276
148 145 139 137 140 142 143 146 144 143 143 143 139 135 137 137 135 134 132 128 126 127 127 126 125 125 131 134 138 147 156 162 177 174 166 158 157 150 158 158 152 151 153 158 164 162 165 176 179 197 199 197 203 210 217 223 225 208 208 223 231 242 254 244 251 248 256 263 267 262 264 270 262 257 257 254 248 243 242 251 254 256 264 272 277
139 134 135 137 138 137 135 132 133 133 132 131 131 128 128 131 133 132 129 131 130 127 127 125 123 120 113 118 124 133 153 163 172 181 172 163 160 152 151 160 157 151 153 159 156 155 162 168 176 187 192 197 202 207 219 229 243 231 223 247 268 280 285 289 311 316 298 299 302 302 300 306 307 289 261 249 249 251 256 257 256 255 253 251 261
129 129 129 130 130 129 129 129 130 131 135 135 131 129 131 128 128 128 130 128 128 128 129 128 124 121 113 108 112 118 141 160 172 174 174 164 161 157 153 149 156 151 152 153 153 146 141 136 139 154 163 161 160 172 192 238 262 290 283 281 278 287 325 12 327 313 306 303 304 304 306 306 309 310 304 302 312 293 275 269 266 272 282 290 302
120 120 120 120 119 120 122 121 121 124 126 124 123 127 130 129 127 132 134 134 134 133 135 133 131 133 136 132 129 126 131 147 165 164 171 171 167 155 147 140 127 125 128 127 129 135 136 136 135 135 139 145 155 174 204 225 203 251 267 276 303 337 342 317 326 301 298 299 291 291 299 307 314 326 338 343 330 315 285 275 272 278 279 275 278
117 118 118 118 116 116 112 114 118 119 122 124 125 128 128 128 125 133 132 134 137 139 144 146 147 149 146 151 151 148 145 138 140 140 153 173 171 161 149 141 137 130 119 126 122 130 139 143 144 134 117 113 125 131 102 221 263 270 275 299 8 38 355 330 305 305 307 288 286 292 298 303 307 302 313 312 308 315 314 308 310 293 290 313 317
122 124 121 120 120 119 114 112 114 119 120 125 130 138 138 137 135 139 137 140 142 144 150 150 150 150 151 151 151 150 144 132 136 136 124 145 168 169 164 159 156 144 120 123 123 115 115 114 110 108 116 123 109 99 109 87 55 6 321 306 11 304 297 239 271 306 284 280 281 283 280 282 284 273 281 311 335 312 315 316 338 328 349 329 323
129 128 127 126 125 123 123 126 123 119 119 121 127 133 135 137 139 142 147 149 148 150 150 152 149 150 154 153 147 146 145 145 145 146 142 133 121 132 149 149 138 120 111 120 117 115 114 111 119 126 131 139 139 148 141 147 138 242 235 236 228 210 207 211 236 241 254 259 265 264 261 262 267 293 304 330 321 311 306 304 323 309 345 334 323
135 135 134 133 132 133 128 129 127 124 125 129 131 131 131 140 143 152 160 158 154 155 155 160 160 160 156 152 147 143 153 156 163 161 160 151 145 134 131 127 130 127 129 129 120 119 114 114 109 99 105 96 113 118 172 180 193 195 205 202 207 208 213 232 246 236 238 238 246 259 273 282 293 298 316 326 311 294 274 175 317 321 329 339 322
128 128 130 128 129 131 131 132 130 128 124 111 95 111 139 139 125 100 93 149 157 156 162 160 160 159 152 152 149 151 155 175 189 165 157 154 148 146 150 150 144 141 143 133 112 102 104 107 118 122 130 149 174 183 192 185 200 198 195 212 210 216 231 250 234 244 252 258 277 290 304 328 323 327 322 317 311 317 350 26 342 352 313 316 303
136 138 138 134 134 135 134 130 124 121 121 119 110 88 75 89 99 115 111 116 135 138 134 154 153 140 129 133 153 160 172 172 153 157 159 157 150 145 143 143 142 142 145 135 126 124 133 136 148 150 170 173 181 186 190 175 171 186 206 209 199 199 225 237 40 32 18 14 359 350 330 325 319 316 308 301 307 332 349 352 331 327 314 309 307
141 141 143 146 147 143 139 133 132 130 129 125 121 116 109 87 90 93 95 93 97 104 112 115 116 120 126 116 116 125 130 140 147 151 152 151 148 148 148 149 148 148 144 133 130 134 144 146 168 173 182 182 187 191 186 167 173 154 123 57 49 58 52 68 55 25 5 347 324 317 306 304 297 304 311 317 319 324 332 333 331 313 293 289 294
148 148 144 142 142 140 135 135 135 134 132 130 129 130 122 118 100 89 91 92 93 97 101 106 109 111 113 118 120 116 127 132 136 139 139 139 140 142 143 143 145 148 150 144 136 154 160 173 185 183 181 166 153 127 121 116 106 116 109 86 44 57 74 53 33 35 346 332 313 322 336 335 327 327 330 335 339 336 334 335 334 332 325 315 291
142 143 143 142 141 139 140 141 143 143 144 142 141 138 136 136 130 124 102 97 97 97 101 108 112 112 113 116 120 127 132 135 135 136 138 139 141 143 146 149 154 160 165 161 156 172 171 170 155 140 135 134 135 128 127 132 130 113 128 139 127 81 79 33 36 24 353 326 26 358 355 348 345 353 348 341 338 331 336 336 337 335 328 323 322
148 154 156 154 148 149 147 147 146 147 143 141 139 136 132 132 132 125 128 124 98 93 99 109 114 116 118 124 129 132 135 137 139 140 142 145 146 150 150 150 155 163 157 141 153 169 143 136 140 144 134 134 136 133 134 125 122 130 109 109 125 103 55 33 53 12 38 22 37 352 351 339 350 5 343 348 346 348 335 330 336 339 336 331 323
135 126 133 140 144 145 144 143 146 145 149 147 142 138 135 136 132 129 128 122 122 123 121 109 112 118 124 130 136 137 138 138 138 140 141 145 150 150 146 143 151 158 146 119 122 136 137 146 146 152 149 148 149 140 144 141 134 129 138 134 94 91 55 49 102 86 70 46 21 334 303 349 356 357 5 348 336 335 329 342 340 336 327 325 325
144 145 143 139 139 143 146 148 149 152 152 149 143 137 139 140 139 135 124 116 123 124 104 94 105 121 123 127 132 134 135 137 140 143 149 152 156 154 145 154 145 151 142 140 114 110 120 133 138 138 127 124 125 123 140 137 142 144 152 136 137 130 134 159 178 140 112 99 270 301 352 356 355 10 1 342 325 329 340 335 334 327 324 323 321
152 150 150 150 146 141 140 140 144 146 141 135 134 136 141 138 136 132 129 130 124 114 110 120 102 84 92 85 120 125 127 129 132 135 143 154 147 122 139 154 153 143 137 138 128 119 113 120 128 129 130 129 132 140 130 139 143 135 121 126 146 135 230 195 218 161 149 161 272 281 155 258 312 312 145 276 297 344 331 326 324 321 326 321 319
161 157 154 148 140 137 136 138 136 131 131 133 136 141 143 146 146 142 140 137 138 137 139 134 125 129 132 126 108 109 127 122 107 83 73 69 65 93 106 124 135 139 142 136 135 129 132 136 128 130 145 137 139 140 134 135 137 130 136 127 115 159 224 240 275 141 173 174 207 218 216 292 270 264 3 33 270 274 295 303 320 325 316 310 309
145 139 139 139 137 139 138 136 137 139 137 139 144 147 150 147 142 139 138 138 141 145 145 142 144 145 138 130 128 137 127 105 94 113 95 85 81 92 109 106 112 116 126 133 130 130 135 138 140 131 133 139 141 146 144 140 126 126 129 125 182 308 286 270 253 230 187 204 218 223 186 247 245 244 204 139 295 284 277 279 306 310 302 295 288
146 142 142 137 128 128 133 138 138 142 149 148 150 147 145 151 152 150 149 148 152 156 156 153 156 150 143 134 141 134 133 140 136 142 130 119 107 94 106 123 126 136 141 136 135 137 138 146 144 140 145 142 147 137 138 143 135 144 131 145 176 237 241 213 217 222 228 227 199 222 222 248 256 231 243 204 219 248 262 274 279 275 270 273 281
141 135 136 132 129 126 125 133 145 151 152 149 147 151 155 147 141 141 142 144 145 145 142 139 134 146 143 152 162 155 139 144 144 145 148 142 137 122 113 119 127 128 130 137 143 141 142 145 150 152 155 152 146 148 138 134 140 132 148 190 195 205 238 249 228 230 237 235 225 222 239 235 245 233 270 262 262 271 254 275 282 283 280 283 290
140 139 138 138 137 135 139 145 143 139 139 142 148 148 144 141 142 142 143 145 144 139 131 126 133 137 152 158 168 145 115 127 122 129 129 132 136 137 122 118 117 130 137 148 147 146 148 144 152 148 154 159 150 151 145 145 151 165 182 198 212 228 239 248 249 244 235 228 233 232 238 232 228 217 237 268 258 254 258 261 247 257 265 274 280
137 132 133 135 141 145 147 143 140 140 140 139 133 125 127 133 137 136 136 137 138 138 134 134 136 143 151 157 132 105 98 114 126 134 135 135 134 128 128 140 138 138 131 135 137 140 142 150 154 157 165 175 169 165 159 175 169 174 186 197 214 225 240 250 259 262 252 256 250 248 233 234 253 254 261 260 256 266 259 250 264 269 271 274 271
126 122 122 120 116 106 113 127 128 122 119 114 111 114 120 117 119 123 129 129 132 130 132 135 138 133 110 105 89 92 107 115 127 133 138 130 135 141 153 152 134 123 124 125 122 126 128 131 149 165 138 162 165 146 153 164 156 164 180 192 221 234 237 242 240 244 243 246 246 236 232 237 246 240 252 254 252 258 263 254 252 253 263 262 262
119 124 125 122 120 118 113 103 109 114 114 113 107 106 104 113 118 119 120 124 121 120 125 130 124 115 108 103 109 121 135 138 135 128 134 143 151 166 161 154 152 159 159 175 178 141 139 155 161 173 222 254 205 181 195 202 180 183 185 189 214 231 235 230 231 227 223 226 236 234 242 234 252 251 248 250 241 237 249 244 240 255 262 262 263
118 118 119 120 118 113 113 112 112 112 115 118 119 112 104 103 104 110 114 112 115 121 124 120 118 117 126 133 136 129 140 132 132 137 143 144 150 167 161 161 163 171 177 184 175 161 171 169 178 197 208 219 224 222 213 202 202 201 204 206 213 226 229 229 226 220 216 206 221 228 236 241 243 236 239 241 249 245 237 247 245 240 233 248 257
111 112 115 115 117 115 114 117 115 115 112 108 106 110 107 106 104 103 100 107 111 113 116 124 129 138 145 152 151 155 150 142 149 146 160 168 166 169 160 157 157 167 181 182 171 177 186 197 200 201 213 219 211 215 220 215 207 208 208 213 224 229 236 231 231 228 233 228 216 216 230 231 238 240 245 247 241 237 237 239 229 239 241 242 242
106 105 104 111 114 116 115 112 109 107 106 106 104 105 105 104 101 100 103 106 108 115 120 126 132 139 136 143 143 143 141 150 158 159 166 175 181 181 171 171 175 192 188 199 207 203 203 207 212 212 217 219 217 222 224 222 223 223 222 221 219 222 222 223 224 228 225 219 214 215 217 225 236 233 235 230 236 238 240 244 241 239 235 234 242
102 107 111 109 110 113 118 117 116 116 117 116 111 105 104 102 101 103 108 112 120 129 135 138 137 129 128 138 133 139 145 148 161 178 183 191 189 192 190 194 196 193 192 213 213 206 212 213 211 209 213 214 214 217 220 221 224 223 224 223 223 225 223 219 217 216 214 208 215 214 217 218 224 231 230 232 236 232 234 240 232 239 245 249 247
100 102 106 108 107 105 102 104 108 105 105 110 112 110 105 104 109 117 122 122 119 123 131 133 137 146 146 148 151 168 169 180 192 198 203 209 205 202 197 198 198 204 205 221 224 216 216 217 217 219 219 220 220 222 223 224 226 226 224 223 230 233 233 227 223 207 195 207 206 212 210 222 225 226 226 228 229 231 233 238 234 235 233 235 240
97 97 98 103 108 109 110 105 94 99 106 109 111 112 113 114 123 128 133 136 142 143 141 142 143 146 157 170 170 179 189 196 197 198 201 206 209 200 202 204 211 215 225 227 233 230 224 222 225 225 224 225 225 228 228 231 231 231 234 238 239 238 236 233 230 227 214 197 198 200 209 214 216 222 227 224 220 221 227 226 226 224 226 226 230